[Date Prev][Date Next][Thread Prev][Thread Next] - [Date Index][Thread Index][Author Index]

2 Line ISS Keps 8-15



ISS 
1 25544U 98067A   03227.16111111  .00014945  00000-0  17851-3 0  3449
2 25544  51.6336  83.4038 0008166 127.2511   5.6052 15.61228115270214



----
Via the sarex mailing list at AMSAT.ORG courtesy of AMSAT-NA.
To unsubscribe, send "unsubscribe sarex" to Majordomo@amsat.org



AMSAT Top AMSAT Home